Regional Weather Roundup
Issued by NWS Sterling, VA

Home | Current Version | Previous Version | Graphics & Text | Print | Product List | Glossary On
Versions: 1 2 3 4 5 6 7 8 9 10 11 12 13 14 15 16 17 18 19 20 21 22 23 24 25 26 27 28 29 30 31 32 33 34 35 36 37 38 39 40 41 42 43 44 45 46 47 48 49 50
000
ASUS41 KLWX 270610
RWRLWX

REGIONAL WEATHER ROUNDUP
NATIONAL WEATHER SERVICE BALTIMORE MD/WASHINGTON DC
100 AM EST THU NOV 27 2014

Note: "FAIR" indicates few or no clouds below 12,000 feet
with no significant weather and/or obstructions to visibility.
 TC=TEMPERATURE CELSIUS

 * =Non NWS site. Station does not report precipitation (e.g. rain,
    snow, etc.), thunder, or fog.

DCZ001-MDZ009-015-VAZ040>042-051-053>054-270700-
WASHINGTON METRO

CITY           SKY/WX    TMP DP  RH WIND       PRES   REMARKS
WASHINGTON NAT MOCLDY    39  32  76 W5        30.02S
DULLES         PTCLDY    34  32  92 W5        30.01R
ANDREWS AFB    CLEAR     35  32  89 NW6       29.99S
FT BELVOIR     MOCLDY    33  32  95 NW2       30.02S
QUANTICO       MOCLDY    35  32  88 NW6       30.04R
COLLEGE PARK*  PTCLDY    36  34  93 CALM      30.00S
LEESBURG*      CLOUDY    34  34 100 W6        30.02R
MANASSAS*      CLOUDY    34  34 100 CALM      30.03R
GAITHERSBURG*  MOCLDY    34  30  86 W3        30.02S

$$

MDZ006>007-011-014-270700-
BALTIMORE METRO

CITY           SKY/WX    TMP DP  RH WIND       PRES   REMARKS
BWI AIRPORT    PTCLDY    33  31  92 W3        29.98F
MD SCIENCE CTR   N/A     36  31  82 MISG      29.98F
MARTIN STATE   CLOUDY    37  34  87 W7        30.00S
ANNAPOLIS      PTCLDY    36  33  89 W5        29.99S
FORT MEADE*    PTCLDY    32  32 100 CALM      30.01F

$$

MDZ012-015-019>023-270700-
MARYLAND EASTERN SHORE

CITY           SKY/WX    TMP DP  RH WIND       PRES   REMARKS
OCEAN CITY     CLOUDY    38  34  85 NW10      29.97S
SALISBURY      CLOUDY    41  36  82 W8        29.97S
BAY BRIDGE AP*   N/A     37  32  81 W8        29.99F
CAMBRIDGE*     MOCLDY    41  34  75 NW9       29.97F
EASTON*        MOCLDY    39  39  98 NW10      30.02F

$$

MDZ017>025-270700-
SOUTHERN MARYLAND

CITY           SKY/WX    TMP DP  RH WIND       PRES   REMARKS
PATUXENT RIVER MOCLDY    37  33  85 W12       30.01R
ST INIGOES     MOCLDY    38  32  79 W8        30.01R
LEONARDTOWN*   PTCLDY    36  32  87 W5        30.02R

$$

MDZ003>005-270700-
NORTH CENTRAL MARYLAND

CITY           SKY/WX    TMP DP  RH WIND       PRES   REMARKS
FREDERICK*     CLOUDY    34  32  93 CALM      30.01F
HAGERSTOWN APT CLOUDY    34  30  85 NW6       29.98S
WESTMINSTER*   MOCLDY    32  30  93 NW3       29.95F

$$

MDZ501>502-270700-
WESTERN MARYLAND

CITY           SKY/WX    TMP DP  RH WIND       PRES   REMARKS
OAKLAND*       FOG       28 N/A N/A NW3       29.91S VSB 1/2
CUMBERLAND*    CLOUDY    34  34 100 CALM      30.03S

$$

VAZ025>031-270700-
SHENANDOAH VALLEY

CITY           SKY/WX    TMP DP  RH WIND       PRES   REMARKS
WINCHESTER*    CLOUDY    34  32  93 SW5       30.00S FOG
FRONT ROYAL*   CLOUDY    32  32 100 CALM      29.99S
LURAY*         FOG       34  34 100 CALM      29.99F VSB 1/2
NEW MARKET*    CLOUDY    32  32 100 CALM      29.98F
STAUNTON*      FOG       31  29  95 CALM      29.99F VSB 1/4
WAYNESBORO*    CLOUDY    30  30 100 CALM      29.97F VSB<1/4

$$

WVZ021-048>050-054>055-270700-
EASTERN WEST VIRGINIA PANHANDLE

CITY           SKY/WX    TMP DP  RH WIND       PRES   REMARKS
MARTINSBURG    CLOUDY    35  31  85 CALM      30.00S
PETERSBURG*    FOG       32  31  97 CALM      30.00F VSB 3/4

$$

VAZ036>039-050-270700-
CENTRAL FOOTHILLS

CITY           SKY/WX    TMP DP  RH WIND       PRES   REMARKS
CHARLOTTESVILL CLOUDY    37  35  92 CALM      29.98F
CULPEPER*      CLOUDY    34  34 100 CALM      30.02S FOG
ORANGE*        CLOUDY    36  34  93 CALM      30.02S FOG
GORDONSVILLE*  CLOUDY    34  34  99 CALM      30.00S FOG
WARRENTON*     CLOUDY    34  34 100 E3        30.00F FOG

$$

VAZ055>057-270700-
NORTH AND CENTRAL PIEDMONT

CITY           SKY/WX    TMP DP  RH WIND       PRES   REMARKS
FREDERICKSBRG* MOCLDY    37  37 100 CALM      30.01S
STAFFORD*      CLOUDY    33  33 100 CALM      30.06R

$$

NCZ024-NYZ072-PAZ021-071-VAZ022-071-270700-
OTHER REGIONAL OBSERVATIONS

CITY           SKY/WX    TMP DP  RH WIND       PRES   REMARKS
NEW YORK CITY  CLOUDY    36  31  82 VRB6      29.87S
PHILADELPHIA   CLOUDY    37  31  78 W10       29.95R
PITTSBURGH     CLOUDY    32  31  96 W3        29.99F FOG
ROANOKE        CLOUDY    36  34  92 CALM      30.02R
RICHMOND       PTCLDY    38  35  89 S5        30.03S
RALEIGH        MOCLDY    39  37  92 CALM      30.07R

$$

ANZ530>537-270700-
MARINE OBSERVATIONS

STATION/POSITION TIME  TEMP    WIND        PRES
                       AIR SEA DIR/SP/G
                 (UTC) (F)     (DEG/KT/KT) (MB)
THOMAS PT LIGHT  0600   38 47  290/  9/ 10 1016.6F
BALT KEY BRIDGE  0600   38     270/  7/  8 1015.3S
COVE POINT       0600   37     320/  9/ 12 1015.4S
LEWISETTA        0600   38 48  290/  7/  9 1016.1R
SOLOMONS ISLAND  0600      49                N/A
PINEY POINT      0600          320/ 18/ 20   N/A

$$



USA.gov is the U.S. government's official web portal to all federal, state and local government web resources and services.